Location: Township of Marena
(38.1747°N, 99.6798°W)
Time: 02:43:27
(UTC+00:00)

ERS-2 - Pass Details

Date: 26 October 2020
Orbit: 493 x 497 km, 98.6° (Epoch: 27 November)

Event Time Altitude Azimuth Distance (km) Brightness Sun altitude
Rises 11:31:54 0° 178° (S) 2,565 5.8 -17.7°
Reaches altitude 10° 11:34:00 10° 184° (S) 1,686 4.8 -17.3°
Maximum altitude 11:37:31 48° 259° (W) 655 2.3 -16.6°
Enters shadow 11:40:01 18° 329° (NNW) 1,287 3.9 -16.1°
